Address 0xfbd5098bbadc42228b1e3f79cafe897660034a61

 
Txn Hash Method
Block
From
To
Value [Txn Fee]
0xb42f0a8b375e1ca6066adaf0990d4e7aaeb4f0d8c81e443e5400d79383a9b459Deposit96954602021-08-02 20:34:2647 days 23 hrs ago0xfbd5098bbadc42228b1e3f79cafe897660034a61OUT 0x81bcacaa5fcba74212d82101160fc9369e38213d0 BNB0.000570635
0x8a1994a65136c5f9c87d47fcc64ae265916f290035bfde991a6538b4fcf61a71Deposit96524592021-08-01 7:21:5049 days 12 hrs ago0xfbd5098bbadc42228b1e3f79cafe897660034a61OUT 0x81bcacaa5fcba74212d82101160fc9369e38213d0 BNB0.00098193
0xa3cc7c4c71dc3815eab5bffe07981ba5816ab08af2bf7c92851c716cb6541820Deposit96524342021-08-01 7:20:3549 days 12 hrs ago0xfbd5098bbadc42228b1e3f79cafe897660034a61OUT 0xfbfae2d489bb649c7f33d9812b2dcf17e9bb279c0 BNB0.00082939
0x009a611ed21c50d0b4850441c16168d274e4f97e934d2d91a96ed76eb6407c8aWithdraw96524202021-08-01 7:19:5349 days 12 hrs ago0xfbd5098bbadc42228b1e3f79cafe897660034a61OUT 0x54932fdfa1a63907db3f8aca53235bbc7f7ea46a0 BNB0.000565305
0x54fbb5060d3de9bf3811fcd015d68c33829bf35d6e59079cd13b7f27ceb74505Deposit96524132021-08-01 7:19:3249 days 12 hrs ago0xfbd5098bbadc42228b1e3f79cafe897660034a61OUT 0x54932fdfa1a63907db3f8aca53235bbc7f7ea46a0 BNB0.000452635
0xa0b339cd433ec3481bd54f35dc25cf2496b83ff938aa6570aeb29aac5eaba3c0Swap Exact Token...96522942021-08-01 7:13:3449 days 12 hrs ago0xfbd5098bbadc42228b1e3f79cafe897660034a61OUT PancakeSwap: Router v20 BNB0.00154983
0x41997b2d2ccdd67734252320210d7cc8046690cab3e1aa369f10442ee31d1831Deposit96521832021-08-01 7:07:5649 days 12 hrs ago0xfbd5098bbadc42228b1e3f79cafe897660034a61OUT 0x81bcacaa5fcba74212d82101160fc9369e38213d0 BNB0.00090693
0xdc20cc3b85fd2f662c333152488a4a539e1ec3c82b993122829b60768b0ee593Deposit96521752021-08-01 7:07:3149 days 12 hrs ago0xfbd5098bbadc42228b1e3f79cafe897660034a61OUT 0x81bcacaa5fcba74212d82101160fc9369e38213d0 BNB0.00090693
0x4168ee8a806690a0f55c4357588f1b69379eb728ee93646ab5ed938fefa11f0aDeposit96521632021-08-01 7:06:5049 days 12 hrs ago0xfbd5098bbadc42228b1e3f79cafe897660034a61OUT 0x81bcacaa5fcba74212d82101160fc9369e38213d0 BNB0.00090693
0x29c32e0bef94723e9c4635ba001923d78b9958d288c428c34238d6e219197fe7Deposit96521452021-08-01 7:05:4749 days 12 hrs ago0xfbd5098bbadc42228b1e3f79cafe897660034a61OUT 0x81bcacaa5fcba74212d82101160fc9369e38213d0 BNB0.00090693
0xb79612f3fa31fe65fdbaec60e44faf07992eb9a789eb9d16056814f2665c6de0Deposit96425642021-07-31 22:55:3449 days 20 hrs ago0xfbd5098bbadc42228b1e3f79cafe897660034a61OUT 0x81bcacaa5fcba74212d82101160fc9369e38213d0 BNB0.00090693
0x06bc7bba60a1ac3e9da3bfc8afedd1f5d0c726cb1e556dd0e16621ed0f6664ceDeposit96422932021-07-31 22:42:0149 days 20 hrs ago0xfbd5098bbadc42228b1e3f79cafe897660034a61OUT 0x81bcacaa5fcba74212d82101160fc9369e38213d0 BNB0.00064751
0xc883874f84f9758a9f2cb040c590a164b2267ab3b84dc1972fced833153b951eDeposit96422862021-07-31 22:41:4049 days 20 hrs ago0xfbd5098bbadc42228b1e3f79cafe897660034a61OUT 0x81bcacaa5fcba74212d82101160fc9369e38213d0 BNB0.00090693
0xa90d3bed0d95b9580f98156fdd17583f587b932e3261dcf073b5fda1a37a5ac7Deposit96422802021-07-31 22:41:2049 days 20 hrs ago0xfbd5098bbadc42228b1e3f79cafe897660034a61OUT 0x81bcacaa5fcba74212d82101160fc9369e38213d0 BNB0.00090693
0x5d07076f1d4c10f9a501269dd75c3c3dc290712fba9a5f205d7af279fc88d3f7Deposit96422722021-07-31 22:40:5649 days 20 hrs ago0xfbd5098bbadc42228b1e3f79cafe897660034a61OUT 0x81bcacaa5fcba74212d82101160fc9369e38213d0 BNB0.00090693
0xc18d1e40a4270ab018935b715c8999c4146f563f2400e818bf0177bb5e20f8c9Deposit96422662021-07-31 22:40:3849 days 20 hrs ago0xfbd5098bbadc42228b1e3f79cafe897660034a61OUT 0x81bcacaa5fcba74212d82101160fc9369e38213d0 BNB0.00064751
0x1a444afdfe5143266025dcf45ba8da5da5be8ad0c89f527f7b00130a7ab34b1eDeposit96422582021-07-31 22:40:1449 days 20 hrs ago0xfbd5098bbadc42228b1e3f79cafe897660034a61OUT 0x81bcacaa5fcba74212d82101160fc9369e38213d0 BNB0.00064751
0x7518700fecb7d93365e79401efa60b22a15b643a34f3a92e186f2e0225da1989Deposit96422502021-07-31 22:39:5049 days 20 hrs ago0xfbd5098bbadc42228b1e3f79cafe897660034a61OUT 0x81bcacaa5fcba74212d82101160fc9369e38213d0 BNB0.00090693
0x88c7ba14216f23a54bed7759be302da0ed584fbe0a8d8c7840492698da3abbf0Deposit96422422021-07-31 22:39:2649 days 20 hrs ago0xfbd5098bbadc42228b1e3f79cafe897660034a61OUT 0x81bcacaa5fcba74212d82101160fc9369e38213d0 BNB0.00090693
0xd56797847eae8c61171fd59940a94825d3cb4057af6000c440d7e77ec13cb97eDeposit96422332021-07-31 22:38:5749 days 20 hrs ago0xfbd5098bbadc42228b1e3f79cafe897660034a61OUT 0x81bcacaa5fcba74212d82101160fc9369e38213d0 BNB0.00090693
0x24f36e59d6082d2b43bb26b7b740274a2247fd48f4eee32ed0c86bf5196a5f88Deposit96422272021-07-31 22:38:3949 days 20 hrs ago0xfbd5098bbadc42228b1e3f79cafe897660034a61OUT 0x81bcacaa5fcba74212d82101160fc9369e38213d0 BNB0.00090693
0x9fba96e228bcbae193b59b6f56a9995b38ce9f18736d4ccb1f480b8a59edb252Deposit96422202021-07-31 22:38:1849 days 20 hrs ago0xfbd5098bbadc42228b1e3f79cafe897660034a61OUT 0x81bcacaa5fcba74212d82101160fc9369e38213d0 BNB0.00090693
0xe6662f25b5efa02841063d9cd578e4e9f86cf3ad1860946c6a20f88371cfca3bDeposit96422142021-07-31 22:38:0049 days 21 hrs ago0xfbd5098bbadc42228b1e3f79cafe897660034a61OUT 0x81bcacaa5fcba74212d82101160fc9369e38213d0 BNB0.00090693
0x3efc0e13ad2714f7e2c65e9266b7f7ee439d4bd2624d0120c11d73c661d73694Deposit96422062021-07-31 22:37:3649 days 21 hrs ago0xfbd5098bbadc42228b1e3f79cafe897660034a61OUT 0x81bcacaa5fcba74212d82101160fc9369e38213d0 BNB0.00090693
0xf2e8a39022f1842607337e466b8ed598a6d7198a66b8f7fb503d16e84f94bafeDeposit96421912021-07-31 22:36:5149 days 21 hrs ago0xfbd5098bbadc42228b1e3f79cafe897660034a61OUT 0x81bcacaa5fcba74212d82101160fc9369e38213d0 BNB0.00090693
[ Download CSV Export 
Latest 9 internal transactions
Parent Txn Hash Block From To Value
0xa0b339cd433ec3481bd54f35dc25cf2496b83ff938aa6570aeb29aac5eaba3c096522942021-08-01 7:13:3449 days 12 hrs ago PancakeSwap: Router v20xfbd5098bbadc42228b1e3f79cafe897660034a610.017137964872259369 BNB
0xe5c06cb4ebd9bdbbaa0a745c116796b66f9c9d52abb40d6182779426a0e103f696410582021-07-31 21:39:1949 days 21 hrs ago PancakeSwap: Router v20xfbd5098bbadc42228b1e3f79cafe897660034a610.080768575555165129 BNB
0xb2514c4c84c2abbecc6ecc8e5844d67a63682d07b4800c651d2c092b1713c06e90407742021-07-10 18:02:2771 days 1 hr ago PancakeSwap: Router v20xfbd5098bbadc42228b1e3f79cafe897660034a610.00498669332044082 BNB
0x64e64609f466fd93e588a27f57f900e5753fe9233477114767f328177badd7eb87089872021-06-29 3:53:2882 days 15 hrs ago PancakeSwap: Router v20xfbd5098bbadc42228b1e3f79cafe897660034a611 wei
0xfd2102e3c03c07100a8960e0c96560238e044151b7168908d607b490f0668b6c87089322021-06-29 3:50:4382 days 15 hrs ago PancakeSwap: Router v20xfbd5098bbadc42228b1e3f79cafe897660034a610.006732244204798292 BNB
0x16b23080b160835b9ad244f3125b619be3e1586baaaba641b4fe4eb66475a36a87088452021-06-29 3:46:1882 days 15 hrs ago PancakeSwap: Router v20xfbd5098bbadc42228b1e3f79cafe897660034a610.00009676529042546 BNB
0x619b7ec42149c8f19e5ae3b3dc4d208de546643a8305f825d55ead401a97e4b087004462021-06-28 20:44:3182 days 22 hrs ago PancakeSwap: Router v20xfbd5098bbadc42228b1e3f79cafe897660034a610.000025152487367035 BNB
0x796f86ba261cd75b16acc9ae29dd46a07a71fa55844ec76a27bb6ce4e817452f87003642021-06-28 20:40:2582 days 22 hrs ago 0xc590175e458b83680867afd273527ff58f74c02b0xfbd5098bbadc42228b1e3f79cafe897660034a610.008558299996956125 BNB
0x003c18b56e12bbb313522b02a06914c9ef87e4776847393003bad62d930e180b85539272021-06-23 18:11:4288 days 1 hr ago PancakeSwap: Router v20xfbd5098bbadc42228b1e3f79cafe897660034a611 wei
[ Download CSV Export 
Loading

Contract Name:
0 BNB

Compiler Version
0

Optimization Enabled:
0 BNB

Other Settings:
-NA-
Block Transaction Gas Used Reward
Age Block Fee Address BC Fee Address Voting Power Jailed Incoming
Block Uncle Number Difficulty Gas Used Reward
Loading
Loading
Make sure to use the "Vote Down" button for any spammy posts, and the "Vote Up" for interesting conversations.